[[{"header":{"parameterUnit":"m.s-1","parameterCategory":1,"la1":30.2991,"la2":30.254,"lo1":-89.0895,"lo2":-89.0444,"dy":0.0017,"dx":0.0017,"nx":28,"ny":28,"refTime":"2025-03-27T03:00:00:Z","depth":0,"parameterNumber":2,"parameterNumberName":"U-component_of_WINDS"},"data":[0,0,0,0,0,0,0,0,0,0,0,0,0,0,0,0,0,0,0,0,0,0,0,0,0,0,0,0,0,0,0,0,0,0,0,0,0,0,0,0,0,0,0,0,0,0,0,0,0,0,0,0,0,0,0,0,0,0,-4.8462,-4.8463,0,-4.8577,-4.8579,-4.858,-4.8489,-4.8485,-4.8481,-4.8477,-4.8598,-4.8604,-4.8611,0,0,0,0,0,0,0,0,0,0,0,0,0,-4.8163,-4.8169,-4.8461,-4.8463,-4.8464,-4.8577,-4.8579,-4.858,-4.8489,-4.8485,-4.848,-4.8476,-4.8595,-4.8603,-4.8612,0,0,0,0,0,0,0,0,0,0,0,0,0,-4.8287,-4.8171,-4.8461,-4.8433,-4.8431,-4.8577,-4.8579,-4.8581,-4.849,-4.8485,-4.8479,-4.8473,-4.8593,-4.8603,-4.8613,-4.8793,0,0,-4.8644,-4.8649,0,0,0,0,0,0,0,0,-4.828,-4.8298,-4.8435,-4.8435,-4.8433,-4.8513,-4.8517,-4.8652,-4.8492,-4.8468,-4.8477,-4.847,-4.8574,-4.8586,-4.862,-4.8799,-4.8804,-4.8645,-4.8651,-4.8656,-4.8659,0,0,0,0,0,0,0,-4.8272,-4.8293,-4.8507,-4.8437,-4.8436,-4.8414,-4.8426,-4.8543,-4.8553,-4.847,-4.8463,-4.8478,-4.8572,-4.8611,-4.8622,-4.8806,-4.8645,-4.8654,-4.866,-4.8664,-4.9139,-4.9145,0,0,0,0,0,0,-4.8266,-4.8286,-4.8504,-4.8511,-4.8341,-4.8425,-4.8437,-4.8493,-4.8551,-4.8554,-4.8483,-4.8473,-4.8596,-4.861,-4.8626,-4.8841,-4.8656,-4.8665,-4.8671,-4.9132,-4.914,-4.9147,0,0,0,0,0,0,-4.826,-4.8286,-4.8499,-4.8397,-4.8422,-4.8436,-4.85,-4.8499,-4.8536,-4.8561,-4.8563,-4.852,-4.8592,-4.8612,-4.8752,-4.8844,-4.867,-4.8679,-4.9125,-4.9135,-4.9143,-4.9273,0,0,0,0,0,0,-4.8252,-4.8284,-4.8353,-4.8399,-4.8428,-4.8623,-4.8505,-4.8505,-4.8554,-4.8543,-4.8596,-4.8599,-4.8589,-4.8738,-4.8763,-4.8855,-4.8687,-4.9116,-4.9129,-4.914,-4.9261,-4.9286,-4.9308,0,0,0,0,0,-4.8241,-4.8385,-4.8357,-4.8383,-4.8514,-4.8629,-4.8645,-4.8629,-4.8562,-4.8631,-4.8647,-4.8598,-4.883,-4.8753,-4.878,-4.8877,-4.911,-4.9125,-4.9139,-4.925,-4.9281,-4.9307,0,0,0,0,0,0,-4.835,-4.8391,-4.836,-4.8523,-4.8573,-4.8613,-4.8699,-4.8663,-4.8733,-4.872,-4.8698,-4.8711,-4.8859,-4.8882,-4.8795,-4.9055,-4.896,-4.898,-4.9034,-4.9064,-4.9087,-4.9078,-4.8696,0,0,0,0,0,-4.8393,-4.8482,-4.8513,-4.8654,-4.868,-4.8686,-4.8735,-4.8719,-4.877,-4.8791,-4.8817,-4.8869,-4.8954,-4.901,-4.9089,-4.9264,-4.9274,-4.9344,-4.9368,-4.9387,-4.9405,-4.9499,-4.953,-4.9195,-4.9194,-4.9194,0,0,-4.8482,-4.8516,-4.8573,-4.8677,-4.8713,-4.8807,-4.8704,-4.8808,-4.8877,-4.8807,-4.8941,-4.8962,-4.9019,-4.9177,-4.9248,-4.9201,-4.95,-4.9405,-4.942,-4.9428,-4.9517,-4.9549,-4.9577,-4.9204,-4.9203,-4.9201,0,0,-4.8693,-4.8727,-4.8848,-4.8887,-4.8944,-4.8947,-4.8976,-4.9022,-4.9034,-4.9168,-4.9117,-4.92,-4.9346,-4.9388,-4.9429,-4.9656,-4.9614,-4.9683,-4.9806,-4.9898,-4.9924,-4.9948,-5.0029,-5.0058,-4.9701,-4.9701,-4.9702,0,-4.8797,-4.8936,-4.8915,-4.9023,-4.9069,-4.901,-4.9133,-4.9172,-4.9252,-4.9286,-4.9232,-4.9415,-4.9449,-4.9616,-4.9671,-4.9706,-4.9739,-4.9677,-4.9922,-4.9945,-4.9967,-5.0044,-5.0074,-4.9709,-4.9708,-4.9708,-4.9707,0,-4.9061,-4.9158,-4.9249,-4.9327,-4.9385,-4.9499,-4.9497,-4.9557,-4.9536,-4.9545,-4.9683,-4.9721,-4.9807,-4.9846,-4.9826,-5.0011,-4.998,-4.9925,-4.9828,-5.0007,-5.0079,-5.0109,-4.9721,-4.9718,-4.9716,-4.9714,0,0,-4.9343,-4.9409,-4.9443,-4.9478,-4.9537,-4.9611,-4.9724,-4.9807,-4.986,-4.9917,-5.0011,-5.0136,-5.0085,-5.0132,-5.0116,-5.0197,-5.0375,-5.0132,-5.0133,-5.0176,-5.0581,-5.0622,-5.0656,-5.0347,-5.0353,-5.0357,-5.0576,0,-4.9557,-4.9751,-4.9736,-4.992,-5.0009,-4.9954,-5.0052,-5.0099,-5.011,-5.0188,-5.02,-5.0289,-5.0215,-5.0243,-5.032,-5.0337,-5.0456,-5.0321,-5.0434,-5.0438,-5.0422,-5.0694,-5.0738,-5.0943,-5.0604,-5.0609,-5.0612,0,-4.9832,-4.9898,-5.0091,-5.0136,-5.0173,-5.0261,-5.0337,-5.0412,-5.0464,-5.0466,-5.0519,-5.049,-5.0603,-5.0504,-5.066,-5.0569,-5.0614,-5.0629,-5.0637,-5.0647,-5.0536,-5.0711,-5.1008,-5.1038,-5.0656,-5.0653,-5.065,0,-5.0018,-5.0156,-5.0289,-5.0321,-5.0377,-5.044,-5.0467,-5.0513,-5.0565,-5.0631,-5.0664,-5.0743,-5.0787,-5.0849,-5.0842,-5.0771,-5.1001,-5.0901,-5.1006,-5.1007,-5.1057,-5.1054,-5.1365,-5.1087,-5.1087,-5.1086,-5.1085,0,-5.0258,-5.0378,-5.0374,-5.0456,-5.0589,-5.0571,-5.0703,-5.0722,-5.0764,-5.0849,-5.0807,-5.0888,-5.0874,-5.0955,-5.0951,-5.1081,-5.1101,-5.1106,-5.1104,-5.111,-5.1109,-5.1139,-5.1125,-5.1094,-5.1092,-5.1091,-5.1089,0,-5.0489,-5.0491,-5.0632,-5.0674,-5.0687,-5.0783,-5.0819,-5.0897,-5.0904,-5.1012,-5.1037,-5.1049,-5.1142,-5.1142,-5.1249,-5.1246,-5.1405,-5.1386,-5.1387,-5.1383,-5.1488,-5.1478,-5.1829,-5.1874,-5.1567,-5.157,-5.1573,0,-5.0641,-5.0732,-5.0784,-5.0837,-5.0868,-5.0955,-5.1007,-5.0993,-5.1049,-5.1116,-5.1186,-5.1275,-5.1345,-5.1497,-5.1516,-5.1597,-5.158,-5.1697,-5.1592,-5.1595,-5.1581,-5.1576,-5.1585,-5.1718,-5.1721,-5.1724,-5.1726,0,-5.0912,-5.0909,-5.0985,-5.1063,-5.1126,-5.1187,-5.1242,-5.1289,-5.1281,-5.1347,-5.1441,-5.1496,-5.1604,-5.1694,-5.1772,-5.1799,-5.1763,-5.1759,-5.1788,-5.1795,-5.1792,-5.1795,-5.1443,-5.1751,-5.1749,-5.1747,-5.1746,-5.1745,-5.1109,-5.1187,-5.1235,-5.1322,-5.1362,-5.1416,-5.149,-5.1508,-5.1586,-5.1673,-5.166,-5.1766,-5.1816,-5.1918,-5.1952,-5.2035,-5.1994,-5.2035,-5.2046,-5.2056,-5.2067,-5.1779,-5.2049,-5.2048,-5.2048,-5.2047,-5.2047,0,-5.1377,-5.1405,-5.1485,-5.1564,-5.1633,-5.1592,-5.1651,-5.1711,-5.1805,-5.1855,-5.1925,-5.2034,-5.212,-5.2146,-5.2229,-5.229,-5.2276,-5.2313,-5.2308,-5.2315,-5.21,-5.2066,-5.2324,-5.2323,-5.2323,-5.2323,-5.2323,-5.2323,-5.1525,-5.1655,-5.1657,-5.1807,-5.1835,-5.1938,-5.1975,-5.2024,-5.2064,-5.2187,-5.2259,-5.2275,-5.2315,-5.2401,-5.2479,-5.2484,-5.2517,-5.2561,-5.256,-5.2358,-5.233,-5.2304,-5.2272,-5.2569,-5.2569,-5.2768,-5.277,-5.2771]},{"header":{"parameterUnit":"m.s-1","parameterCategory":1,"la1":30.2991,"la2":30.254,"lo1":-89.0895,"lo2":-89.0444,"dy":0.0017,"dx":0.0017,"nx":28,"ny":28,"refTime":"2025-03-27T03:00:00:Z","depth":0,"parameterNumber":3,"parameterNumberName":"V-component_of_WINDS"},"data":[0,0,0,0,0,0,0,0,0,0,0,0,0,0,0,0,0,0,0,0,0,0,0,0,0,0,0,0,0,0,0,0,0,0,0,0,0,0,0,0,0,0,0,0,0,0,0,0,0,0,0,0,0,0,0,0,0,0,-0.0071,-0.007,0,-0.0033,-0.0033,-0.0032,-0.0011,-0.0011,-0.0011,-0.0011,0.0027,0.0028,0.0029,0,0,0,0,0,0,0,0,0,0,0,0,0,-0.0122,-0.0121,-0.0071,-0.007,-0.007,-0.0033,-0.0033,-0.0032,-0.0011,-0.0011,-0.0011,-0.0011,0.0027,0.0028,0.0029,0,0,0,0,0,0,0,0,0,0,0,0,0,-0.0094,-0.0121,-0.0071,-0.0055,-0.0053,-0.0033,-0.0033,-0.0032,-0.0011,-0.0011,-0.0011,-0.0011,0.0026,0.0028,0.0029,0.0036,0,0,0.0033,0.0034,0,0,0,0,0,0,0,0,-0.0095,-0.0092,-0.0058,-0.0056,-0.0054,-0.0027,-0.0037,-0.0009,-0.0011,-0.0027,-0.0011,-0.0011,0.0009,0.0012,0.0019,0.0037,0.0039,0.0033,0.0034,0.0035,0.0035,0,0,0,0,0,0,0,-0.0097,-0.0093,-0.0056,-0.0057,-0.0055,-0.0049,-0.0045,-0.0032,-0.001,-0.0026,-0.0024,-0.002,0.001,0.0017,0.002,0.0039,0.0033,0.0035,0.0036,0.0036,0.0068,0.0068,0,0,0,0,0,0,-0.0102,-0.0095,-0.0057,-0.0055,-0.0075,-0.0048,-0.0043,-0.0036,-0.001,-0.0006,-0.002,-0.0019,0.0015,0.0018,0.0021,0.0032,0.0035,0.0036,0.0037,0.0068,0.0068,0.0068,0,0,0,0,0,0,-0.0103,-0.0099,-0.0059,-0.0074,-0.0069,-0.0047,-0.0039,-0.0035,-0.0028,-0.0006,-0.0002,-0.0017,0.0015,0.0019,0.0032,0.0034,0.0037,0.0038,0.0068,0.0068,0.0068,0.0053,0,0,0,0,0,0,-0.0105,-0.0099,-0.0097,-0.0075,-0.0068,-0.0048,-0.0039,-0.0034,-0.0025,-0.0024,-0.0002,0.0002,0.0015,0.003,0.0034,0.0036,0.0039,0.0068,0.0068,0.0068,0.0054,0.0053,0.0052,0,0,0,0,0,-0.0107,-0.0104,-0.0097,-0.0093,-0.0065,-0.0048,-0.0045,-0.0029,-0.0025,-0.0023,-0.0008,0.0001,0.0033,0.0031,0.0036,0.0038,0.0068,0.0068,0.0068,0.0054,0.0053,0.0052,0,0,0,0,0,0,-0.0128,-0.0101,-0.0093,-0.0083,-0.0068,-0.0045,-0.0041,-0.0031,-0.0017,-0.0017,0.0002,0.0007,0.0019,0.003,0.0028,0.0047,0.0052,0.0053,0.0039,0.0038,0.0037,0.0035,0.004,0,0,0,0,0,-0.0131,-0.012,-0.0097,-0.009,-0.0083,-0.0063,-0.0055,-0.0044,-0.0028,-0.0022,-0.0007,0.0009,0.0023,0.0031,0.0045,0.0055,0.0062,0.0059,0.0058,0.0058,0.0058,0.0067,0.0067,0.0069,0.0069,0.0069,0,0,-0.0138,-0.0122,-0.0116,-0.0094,-0.0081,-0.0069,-0.0058,-0.0047,-0.0037,-0.002,-0.0006,0.0006,0.0024,0.0037,0.0043,0.0046,0.0059,0.0058,0.0057,0.0058,0.0067,0.0067,0.0067,0.0069,0.0069,0.0069,0,0,-0.0145,-0.0132,-0.0124,-0.0111,-0.0091,-0.0077,-0.0075,-0.0053,-0.0044,-0.003,-0.0016,-0.0004,0.0018,0.0032,0.0042,0.0043,0.0053,0.0047,0.0042,0.0051,0.0051,0.0051,0.0053,0.0053,0.0048,0.0048,0.0048,0,-0.0156,-0.0138,-0.0121,-0.0109,-0.0099,-0.0082,-0.0073,-0.0061,-0.0038,-0.0031,-0.0028,0.0003,0.0017,0.0034,0.0035,0.0041,0.0046,0.0045,0.0049,0.0049,0.005,0.0052,0.0052,0.0047,0.0047,0.0047,0.0047,0,-0.0152,-0.014,-0.0135,-0.0112,-0.0101,-0.0092,-0.0072,-0.0063,-0.0052,-0.0038,-0.0022,-0.0005,0.0013,0.0018,0.0028,0.0038,0.0039,0.0046,0.0051,0.0048,0.0051,0.0052,0.0046,0.0046,0.0047,0.0047,0,0,-0.0173,-0.0138,-0.0137,-0.0125,-0.0101,-0.0091,-0.0079,-0.006,-0.0052,-0.0036,-0.0025,-0.0004,0.0002,0.0014,0.0026,0.0033,0.0035,0.0039,0.0039,0.0038,0.0049,0.0045,0.0045,0.0042,0.0042,0.0042,0.0048,0,-0.0175,-0.0153,-0.0136,-0.012,-0.0107,-0.0089,-0.0079,-0.0062,-0.0049,-0.0035,-0.002,-0.0005,0.0002,0.0009,0.0017,0.0033,0.0038,0.0033,0.0054,0.0054,0.0049,0.0046,0.0041,0.0045,0.0049,0.0049,0.0049,0,-0.0175,-0.0159,-0.0141,-0.0116,-0.011,-0.0101,-0.0081,-0.0069,-0.0049,-0.0039,-0.0025,-0.0012,0.0003,0.0007,0.0028,0.0025,0.0035,0.0044,0.0045,0.0047,0.0052,0.005,0.0047,0.0048,0.0051,0.005,0.005,0,-0.019,-0.0164,-0.0149,-0.014,-0.0111,-0.0104,-0.0092,-0.0072,-0.006,-0.0043,-0.0035,-0.0016,-0.0006,0.0009,0.0028,0.0029,0.0048,0.0053,0.0057,0.0057,0.006,0.006,0.006,0.0066,0.0066,0.0065,0.0065,0,-0.0194,-0.0184,-0.0155,-0.0147,-0.0134,-0.0113,-0.0101,-0.0087,-0.0069,-0.0056,-0.0039,-0.0028,-0.0004,0.0011,0.0025,0.0042,0.0046,0.0055,0.0059,0.0054,0.0053,0.0061,0.0061,0.0066,0.0066,0.0066,0.0066,0,-0.0209,-0.019,-0.0173,-0.0145,-0.0138,-0.013,-0.0106,-0.0096,-0.0081,-0.0065,-0.006,-0.0035,-0.0017,0.0004,0.0029,0.0039,0.0055,0.006,0.0048,0.0051,0.0054,0.0054,0.0059,0.0061,0.0065,0.0065,0.0065,0,-0.0213,-0.0205,-0.0176,-0.0166,-0.0154,-0.0138,-0.0126,-0.0105,-0.0093,-0.0068,-0.0061,-0.004,-0.0023,0.0007,0.0027,0.0047,0.0053,0.0054,0.0056,0.0052,0.0054,0.0054,0.0056,0.0053,0.0052,0.0052,0.0052,0,-0.0222,-0.0212,-0.0195,-0.0175,-0.0161,-0.0144,-0.0126,-0.0118,-0.0094,-0.0081,-0.0061,-0.0047,-0.002,0.0,0.0023,0.0037,0.0049,0.0052,0.0054,0.0049,0.0042,0.0047,0.0047,0.0051,0.0051,0.0051,0.0051,0.0051,-0.023,-0.0221,-0.0199,-0.018,-0.0164,-0.0147,-0.0136,-0.0118,-0.0101,-0.0078,-0.0066,-0.0046,-0.0023,0.0009,0.0023,0.004,0.0044,0.0046,0.0047,0.0048,0.0047,0.0039,0.0044,0.0044,0.0044,0.0044,0.0044,0,-0.0237,-0.0221,-0.0204,-0.0179,-0.0164,-0.0153,-0.0132,-0.012,-0.0102,-0.0083,-0.0065,-0.0041,-0.002,0.0002,0.0025,0.0034,0.004,0.0039,0.0039,0.0043,0.0042,0.0038,0.0034,0.0034,0.0034,0.0034,0.0034,0.0034,-0.0238,-0.0221,-0.0208,-0.0183,-0.0167,-0.0146,-0.0135,-0.0119,-0.0103,-0.0076,-0.0059,-0.0044,-0.0022,0.0002,0.0023,0.0029,0.0037,0.0034,0.0042,0.0041,0.0042,0.0043,0.004,0.0036,0.0036,0.0042,0.0042,0.0042]}]]